Weather History for Monroe, MI

Change the Weather History Date:

Sunday, November 9, 2014

  Actual Average Record
Temperature  
Mean Temperature 38 °F -  
Max Temperature 44 °F 52 °F 75 °F (1999)
Min Temperature 32 °F 35 °F 19 °F (1991)
Degree Days  
Heating Degree Days 27    
Moisture  
Dew Point 32 °F    
Average Humidity 75    
Maximum Humidity 100    
Minimum Humidity 53    
Precipitation  
Precipitation 0.00 in - - ()
Sea Level Pressure  
Sea Level Pressure 29.88 in    
Wind  
Wind Speed 5 mph (SW)    
Max Wind Speed 16 mph    
Max Gust Speed 21 mph    
Visibility 10 miles    
Events      
Averages and records for this station are not official NWS values.
T = Trace of Precipitation, MM = Missing Value Source: NWS Daily Summary

Daily Weather History Graph

Daily Weather History Graph

Search for Another Location

Airport:

Trip Planner

Search our weather history database for the weather conditions in past years. The results will help you decide how hot, cold, wet, or windy it might be!

Date:

Astronomy

Nov. 09, 2014 Rise Set
Actual Time 7:16 AM EST 5:18 PM EST
Civil Twilight 6:46 AM EST 5:48 PM EST
Nautical Twilight 6:13 AM EST 6:21 PM EST
Astronomical Twilight 5:40 AM EST 6:54 PM EST
Moon 7:50 PM EST (11/9) 9:48 AM EST (11/9)
Length of Visible Light 11h 01m
Length of Day
10h 02m
Waning Gibbous, 91% of the Moon is Illuminated
Nov 9
Waning Gibbous
Nov 14
Last Quarter
Nov 22
New
Nov 29
First Quarter
Dec 6
Full

Hourly Weather History & Observations

Time (EST) Temp. Windchill Dew Point Humidity Pressure Visibility Wind Dir Wind Speed Gust Speed Precip Events Conditions
12:15 AM 39.2 °F 37.0 °F 33.8 °F 81% 29.89 in 10.0 mi SSW 3.5 mph - N/A   Overcast
12:35 AM 37.4 °F 34.9 °F 33.8 °F 87% 29.89 in 10.0 mi SSW 3.5 mph - N/A   Overcast
12:56 AM 37.4 °F 33.8 °F 33.8 °F 87% 29.89 in 10.0 mi SW 4.6 mph - N/A   Overcast
1:16 AM 39.2 °F 35.0 °F 33.8 °F 81% 29.89 in 10.0 mi SW 5.8 mph - N/A   Overcast
1:36 AM 39.2 °F 35.0 °F 33.8 °F 81% 29.90 in 10.0 mi WSW 5.8 mph - N/A   Overcast
1:56 AM 39.2 °F 35.0 °F 33.8 °F 81% 29.90 in 10.0 mi WSW 5.8 mph - N/A   Overcast
2:16 AM 39.2 °F 34.2 °F 33.8 °F 81% 29.91 in 10.0 mi WSW 6.9 mph - N/A   Overcast
2:36 AM 39.2 °F 35.9 °F 33.8 °F 81% 29.91 in 10.0 mi WSW 4.6 mph - N/A   Overcast
2:56 AM 39.2 °F 35.9 °F 33.8 °F 81% 29.91 in 10.0 mi West 4.6 mph - N/A   Overcast
3:16 AM 39.2 °F 37.0 °F 33.8 °F 81% 29.91 in 10.0 mi West 3.5 mph - N/A   Overcast
3:31 AM 37.4 °F - 33.8 °F 87% 29.91 in 10.0 mi Calm Calm - N/A   Overcast
3:51 AM 37.4 °F - 33.8 °F 87% 29.90 in 10.0 mi Calm Calm - N/A   Mostly Cloudy
4:12 AM 37.4 °F 33.8 °F 33.8 °F 87% 29.90 in 10.0 mi WSW 4.6 mph - N/A   Mostly Cloudy
4:32 AM 37.4 °F 33.8 °F 33.8 °F 87% 29.90 in 10.0 mi SW 4.6 mph - N/A   Mostly Cloudy
4:52 AM 37.4 °F 34.9 °F 33.8 °F 87% 29.90 in 10.0 mi WSW 3.5 mph - N/A   Scattered Clouds
5:12 AM 35.6 °F - 33.8 °F 93% 29.91 in 10.0 mi Calm Calm - N/A   Clear
5:20 AM 35.6 °F - 33.8 °F 93% 29.91 in 10.0 mi Calm Calm - N/A   Clear
5:55 AM 35.6 °F - 33.8 °F 93% 29.90 in 10.0 mi Calm Calm - N/A   Clear
6:01 AM 33.8 °F - 32.0 °F 93% 29.91 in 10.0 mi Calm Calm - N/A   Clear
6:12 AM 33.8 °F - 33.8 °F 100% 29.91 in 10.0 mi Calm Calm - N/A   Clear
6:32 AM 33.8 °F - 33.8 °F 100% 29.91 in 10.0 mi Calm Calm - N/A   Clear
6:41 AM 33.8 °F - 33.8 °F 100% 29.91 in 10.0 mi Calm Calm - N/A   Clear
7:15 AM 33.8 °F 30.8 °F 32.0 °F 93% 29.92 in 10.0 mi WSW 3.5 mph - N/A   Clear
7:27 AM 32.0 °F - 30.2 °F 93% 29.91 in 10.0 mi Calm Calm - N/A   Clear
7:32 AM 33.8 °F 30.8 °F 32.0 °F 93% 29.92 in 10.0 mi SSW 3.5 mph - N/A   Scattered Clouds
7:53 AM 35.6 °F 32.8 °F 33.8 °F 93% 29.93 in 10.0 mi SW 3.5 mph - N/A   Mostly Cloudy
8:13 AM 37.4 °F 32.8 °F 33.8 °F 87% 29.93 in 10.0 mi SW 5.8 mph - N/A   Overcast
8:33 AM 37.4 °F 32.8 °F 33.8 °F 87% 29.93 in 10.0 mi SW 5.8 mph - N/A   Overcast
8:53 AM 37.4 °F 32.8 °F 33.8 °F 87% 29.93 in 10.0 mi SW 5.8 mph - N/A   Scattered Clouds
9:13 AM 37.4 °F 33.8 °F 33.8 °F 87% 29.93 in 10.0 mi SW 4.6 mph - N/A   Mostly Cloudy
9:33 AM 39.2 °F 34.2 °F 33.8 °F 81% 29.93 in 10.0 mi SW 6.9 mph - N/A   Overcast
9:53 AM 39.2 °F 33.6 °F 33.8 °F 81% 29.92 in 10.0 mi SSW 8.1 mph - N/A   Overcast
10:13 AM 39.2 °F 33.6 °F 33.8 °F 81% 29.92 in 10.0 mi SW 8.1 mph - N/A   Overcast
10:33 AM 42.8 °F 37.5 °F 33.8 °F 70% 29.92 in 10.0 mi SW 9.2 mph - N/A   Mostly Cloudy
10:53 AM 42.8 °F 37.0 °F 33.8 °F 70% 29.91 in 10.0 mi SW 10.4 mph 16.1 mph N/A   Mostly Cloudy
11:14 AM 44.6 °F 39.7 °F 32.0 °F 61% 29.90 in 10.0 mi SW 9.2 mph - N/A   Mostly Cloudy
11:34 AM 44.6 °F 38.4 °F 33.8 °F 66% 29.90 in 10.0 mi SW 12.7 mph - N/A   Mostly Cloudy
11:54 AM 44.6 °F 38.8 °F 32.0 °F 61% 29.88 in 10.0 mi SW 11.5 mph - N/A   Mostly Cloudy
12:14 PM 44.6 °F 38.4 °F 32.0 °F 61% 29.88 in 10.0 mi SW 12.7 mph 18.4 mph N/A   Mostly Cloudy
12:34 PM 44.6 °F 38.4 °F 32.0 °F 61% 29.86 in 10.0 mi SSW 12.7 mph 19.6 mph N/A   Scattered Clouds
12:54 PM 44.6 °F 38.8 °F 33.8 °F 66% 29.86 in 10.0 mi SSW 11.5 mph - N/A   Mostly Cloudy
1:14 PM 42.8 °F 38.0 °F 33.8 °F 70% 29.85 in 10.0 mi SW 8.1 mph - N/A   Overcast
1:34 PM 42.8 °F 37.0 °F 30.2 °F 61% 29.85 in 10.0 mi SW 10.4 mph 16.1 mph N/A   Overcast
1:54 PM 42.8 °F 37.0 °F 30.2 °F 61% 29.84 in 10.0 mi WSW 10.4 mph - N/A   Overcast
2:15 PM 44.6 °F 39.7 °F 30.2 °F 57% 29.83 in 10.0 mi SW 9.2 mph - N/A   Overcast
2:35 PM 44.6 °F 37.4 °F 28.4 °F 53% 29.83 in 10.0 mi SW 16.1 mph - N/A   Overcast
2:55 PM 44.6 °F 40.2 °F 30.2 °F 57% 29.82 in 10.0 mi SSW 8.1 mph - N/A   Overcast
3:15 PM 44.6 °F 38.8 °F 30.2 °F 57% 29.82 in 10.0 mi SSW 11.5 mph 17.3 mph N/A   Overcast
3:35 PM 44.6 °F 37.8 °F 30.2 °F 57% 29.81 in 10.0 mi SSW 15.0 mph 20.7 mph N/A   Overcast
3:55 PM 44.6 °F 39.2 °F 30.2 °F 57% 29.82 in 10.0 mi SSW 10.4 mph 16.1 mph N/A   Overcast
4:15 PM 44.6 °F 38.8 °F 30.2 °F 57% 29.82 in 10.0 mi SSW 11.5 mph - N/A   Overcast
4:35 PM 44.6 °F 38.4 °F 30.2 °F 57% 29.82 in 10.0 mi SSW 12.7 mph 19.6 mph N/A   Overcast
4:55 PM 44.6 °F 38.8 °F 30.2 °F 57% 29.82 in 10.0 mi SSW 11.5 mph - N/A   Overcast
5:16 PM 44.6 °F 39.2 °F 30.2 °F 57% 29.82 in 10.0 mi SSW 10.4 mph - N/A   Overcast
5:36 PM 44.6 °F 39.7 °F 30.2 °F 57% 29.82 in 10.0 mi SSW 9.2 mph - N/A   Overcast
5:56 PM 44.6 °F 41.4 °F 30.2 °F 57% 29.83 in 10.0 mi SW 5.8 mph - N/A   Overcast
6:16 PM 44.6 °F 40.7 °F 30.2 °F 57% 29.83 in 10.0 mi SSW 6.9 mph - N/A   Overcast
6:36 PM 44.6 °F 40.2 °F 32.0 °F 61% 29.84 in 10.0 mi SW 8.1 mph - N/A   Overcast
6:56 PM 44.6 °F 41.4 °F 32.0 °F 61% 29.85 in 10.0 mi WSW 5.8 mph - N/A   Mostly Cloudy
7:16 PM 42.8 °F 40.1 °F 32.0 °F 66% 29.85 in 10.0 mi WSW 4.6 mph - N/A   Scattered Clouds
7:36 PM 42.8 °F 40.1 °F 32.0 °F 66% 29.86 in 10.0 mi SW 4.6 mph - N/A   Clear
7:56 PM 41.0 °F 38.0 °F 30.2 °F 65% 29.86 in 10.0 mi WSW 4.6 mph - N/A   Clear
8:09 PM 41.0 °F 39.0 °F 30.2 °F 65% 29.86 in 10.0 mi SW 3.5 mph - N/A   Clear
8:31 PM 39.2 °F - 30.2 °F 70% 29.87 in 10.0 mi Calm Calm - N/A   Clear
8:52 PM 39.2 °F 37.0 °F 30.2 °F 70% 29.87 in 10.0 mi WSW 3.5 mph - N/A   Clear
9:12 PM 37.4 °F - 30.2 °F 75% 29.88 in 10.0 mi Calm Calm - N/A   Clear
9:16 PM 35.6 °F - 30.2 °F 81% 29.88 in 10.0 mi Calm Calm - N/A   Clear
9:52 PM 37.4 °F - 30.2 °F 75% 29.87 in 10.0 mi Calm Calm - N/A   Clear
10:12 PM 35.6 °F 32.8 °F 30.2 °F 81% 29.87 in 10.0 mi South 3.5 mph - N/A   Clear
10:32 PM 39.2 °F 37.0 °F 30.2 °F 70% 29.87 in 10.0 mi South 3.5 mph - N/A   Clear
10:47 PM 39.2 °F 37.0 °F 32.0 °F 75% 29.87 in 10.0 mi SSW 3.5 mph - N/A   Clear
11:12 PM 41.0 °F 39.0 °F 32.0 °F 70% 29.87 in 10.0 mi South 3.5 mph - N/A   Mostly Cloudy
11:32 PM 41.0 °F 38.0 °F 33.8 °F 76% 29.87 in 10.0 mi SSW 4.6 mph - N/A   Overcast
11:52 PM 42.8 °F 40.1 °F 33.8 °F 70% 29.88 in 10.0 mi SSW 4.6 mph - N/A   Overcast